• MPC Preparation (Info)

  • MPEC 2019-Q92 : 2006 SE6

    The following Minor Planet Electronic Circular may be linked-to from your own Web pages, but must not otherwise be redistributed electronically.

    A form allowing access to any MPEC is at the bottom of this page.


    Read MPEC 2019-Q91 Read MPEC 2019-Q93


    M.P.E.C. 2019-Q92                                Issued 2019 August 27, 19:35 UT  
    
         The Minor Planet Electronic Circulars contain information on unusual
             minor planets and routine data on comets.  They are published
        on behalf of Division F of the International Astronomical Union by the
              Minor Planet Center, Smithsonian Astrophysical Observatory,
                              Cambridge, MA 02138, U.S.A.
    
                 Prepared using the Tamkin Foundation Computer Network
    
                                  MPC@CFA.HARVARD.EDU
                URL https://www.minorplanetcenter.net/    ISSN 1523-6714
    
                                    2006 SE6                                 
    
    
                               Revision to MPEC 2006-S19                            
    
    Additional Observations:
         K06S06E  C2019 08 24.54372901 54 49.792-02 27 19.41         19.39GVEQ092F51
         K06S06E  C2019 08 24.55794701 54 42.449-02 27 36.70         19.41GVEQ092F51
         K06S06E  C2019 08 27.34546 01 30 34.48 -03 28 19.7          19.2 GVEQ092703
         K06S06E  C2019 08 27.35099 01 30 31.22 -03 28 27.5          19.0 GVEQ092703
         K06S06E  C2019 08 27.35652 01 30 27.98 -03 28 34.9          19.1 GVEQ092703
         K06S06E  C2019 08 27.36206 01 30 24.61 -03 28 42.9          19.2 GVEQ092703
         K06S06E  C2019 08 27.47499 01 29 16.41 -03 31 20.9          18.7 GVEQ092I52
         K06S06E  C2019 08 27.47540 01 29 16.16 -03 31 21.5          18.8 GVEQ092I52
         K06S06E  C2019 08 27.47582 01 29 15.91 -03 31 22.1          18.9 GVEQ092I52
         K06S06E  C2019 08 27.47624 01 29 15.65 -03 31 22.6          18.8 GVEQ092I52
    
    Observer details:
    703 Catalina Sky Survey.  Observer H. Groeller.  Measurers B. M. Africano, E. 
       J. Christensen, G. A. Farneth, D. C. Fuls, A. R. Gibbs, A. D. Grauer, H. 
       Groeller, R. A. Kowalski, S. M. Larson, G. J. Leonard, T. A. Pruyne, D. 
       Rankin, R. L. Seaman, F. C. Shelly.  0.68-m Schmidt + 10K CCD.
    F51 Pan-STARRS 1, Haleakala.  Observers J. Bulger, K. Chambers, T. Lowe, E. 
       Magnier, A. Schultz, M. Willman.  Measurers S. Chastel, M. Huber, Y. 
       Ramanjooloo, R. Wainscoat, R. Weryk.  1.8-m Ritchey-Chretien + CCD.
    I52 Steward Observatory, Mt. Lemmon Station.  Observer H. Groeller.  Measurers 
       B. M. Africano, E. J. Christensen, G. A. Farneth, D. C. Fuls, A. R. Gibbs, 
       A. D. Grauer, H. Groeller, R. A. Kowalski, S. M. Larson, G. J. Leonard, T. 
       A. Pruyne, D. Rankin, R. L. Seaman, F. C. Shelly.  1.0-m reflector + CCD.
    
    First and last observations above in comparison with prediction:
    Residuals in seconds of arc (or two decimals in degrees), reference and Delta-T
    190824 F51 2.25- 2.59-    190827 I52 3.23- 2.92-    MPO215111   -0.69 days
    
    Orbital elements:
    2006 SE6                                                 Earth MOID = 0.0364 AU
    Epoch 2019 Apr. 27.0 TT = JDT 2458600.5                 Veres
    M 346.41092              (2000.0)            P               Q
    n   1.36448872     Peri.  183.19726     -0.98621627     -0.16442745
    a   0.8050498      Node   347.29371     +0.15360990     -0.86837186
    e   0.3455705      Incl.    4.81659     +0.06149372     -0.46786101
    P   0.72           H   22.9           G   0.15           U   3
    Residuals in seconds of arc
    060828 705  0.1+  0.0     060918 673  0.3-  0.0     060922 246  0.3+  0.3+
    060828 705  0.1+  0.1-    060918 704  0.2+  0.8+    060922 246  0.8-  0.4+
    060828 705  0.6+  0.1-    060918 673  0.6+  0.3+    060923 291  0.1+  0.1-
    060914 950 (3.5-  0.9-)   060918 291  0.2+  0.1+    060923 291  0.0   0.5-
    060914 950 (2.9-  0.7-)   060918 291  0.4+  0.1+    060923 291  0.3-  0.2-
    060917 291  0.0   0.0     060918 291  0.2+  0.5-    060923 711  0.5-  0.1+
    060917 291  0.4+  0.6+    060918 E12  0.3-  0.4-    060923 711  0.2+  0.2+
    060917 291  0.2+  0.0     060918 E12  0.5-  0.4-    060923 711  0.2-  0.1-
    060917 291  0.3-  0.1-    060918 E12  0.2-  0.5-    060924 291  0.3+  0.1+
    060917 291  0.1-  0.1+    060918 E12  1.0-  0.7-    060924 291  0.3-  0.1+
    060917 291  0.4+  0.2-    060918 E12  0.3-  0.5-    060924 291  0.2+  0.2+
    060917 291  0.0   0.0     060919 699  0.0   0.0     060924 246  0.3+  0.4+
    060917 291  0.1+  0.2+    060919 691  0.1+  0.1-    060924 246  0.4-  0.2+
    060917 291  0.4+  0.1+    060919 699  0.2+  0.2-    060924 246  0.6+  0.1+
    060917 291  0.2+  0.0     060919 691  0.0   0.2-    060924 246  0.8-  0.3+
    060917 291  0.6+  0.3+    060919 691  0.2+  0.1-    060925 291  0.2+  0.3+
    060917 291  0.5-  0.2+    060919 699  0.2+  0.1+    060925 291  0.8+  0.2+
    060918 734  0.1-  0.1+    060919 699  0.1-  0.2-    060925 291  0.1-  0.0
    060918 734  1.2+  0.2-    060919 291  0.8+  0.1-    060926 703  1.3-  0.3-
    060918 734  0.2-  0.3-    060919 291  0.3+  0.3+    060926 703  1.3-  0.0
    060918 703  0.1+  0.6-    060919 291  0.9+  0.1+    060926 703  0.0   0.2-
    060918 291  0.1-  0.2+    060919 176  0.4-  0.3-    060926 703  0.6-  0.1+
    060918 703  0.2+  0.7-    060919 176  0.2-  0.3-    061011 291 (2.1+  0.9-)
    060918 734  0.4-  0.4-    060919 176  0.1+  0.3-    061011 291  0.6+  0.0
    060918 291  0.2-  0.3+    060919 176  1.0+  0.4-    061017 291  0.3-  1.3+
    060918 734  0.1+  0.4-    060921 246  0.0   0.8-    061017 291  0.3+  0.4+
    060918 703  0.2-  0.3-    060921 246  0.3+  0.0     061017 291 (2.4+  1.5+)
    060918 291  0.4-  0.0     060921 246  0.8+  0.7-    190824 F51  0.0   0.1+
    060918 703  0.8-  0.3-    060921 246  1.4+  0.0     190824 F51  0.0   0.1+
    060918 704  0.7-  0.9+    060921 215  0.8-  0.0     190827 703  1.0-  0.0
    060918 854  0.2-  0.5+    060921 215  0.7-  0.2-    190827 703  0.4-  0.1-
    060918 704  0.3-  0.7+    060921 215  0.5-  0.5-    190827 703  0.6+  0.3+
    060918 854  0.6-  0.7+    060922 291  1.4+  0.0     190827 703  0.2-  0.1+
    060918 673  0.3-  0.1+    060922 291  0.2+  0.0     190827 I52  0.0   0.0
    060918 854  0.3+  0.1+    060922 291  0.3-  0.1-    190827 I52  0.0   0.0
    060918 673  0.3-  0.1-    060922 246  1.2+  0.1-    190827 I52  0.0   0.0
    060918 704  0.3-  0.6+    060922 246  0.1-  0.7+    190827 I52  0.0   0.1+
    
    Ephemeris:
    2006 SE6                 a,e,i = 0.81, 0.35, 5                   q = 0.5268
    Date    TT    R. A. (2000) Decl.     Delta      r    Elong.  Phase     V
    2019 07 28    03 45 43.0 +02 11 20   0.1573  0.9749    70.7   100.6    22.5
    ...
    2019 08 12    03 03 57.5 +00 28 06   0.1179  1.0303    94.9    78.6    21.1
    ...
    2019 08 20    02 26 12.8 -01 06 48   0.09673 1.0518   111.8    63.3    20.2
    ...
    2019 08 26    01 42 41.4 -02 57 06   0.08293 1.0643   128.4    48.1    19.4
    2019 08 27    01 33 44.4 -03 19 20   0.08100 1.0661   131.6    45.2    19.3
    2019 08 28    01 24 15.8 -03 42 36   0.07920 1.0677   134.9    42.1    19.2
    ...
    2019 09 03    00 17 16.8 -06 13 51   0.07231 1.0760   157.3    21.2    18.4
    ...
    2019 09 11    22 38 57.8 -08 50 51   0.07631 1.0822   170.2     9.1    18.1
    ...
    2019 09 26    20 46 14.0 -09 32 04   0.1156  1.0787   128.5    46.6    20.1
    
    A. U. Tomatic                (C) Copyright 2019 MPC           M.P.E.C. 2019-Q92
    


    Read MPEC 2019-Q91 Read MPEC 2019-Q93


    MPEC number:

    Enter an MPEC number in one of the following forms:

    • 1997-B01 (the full form)
    • J97B01 (the packed version of the full form)
    • B01 (the abbreviated form)